TimeEDT,TemperatureF,Dew PointF,Humidity,Sea Level PressureIn,VisibilityMPH,Wind Direction,Wind SpeedMPH,Gust SpeedMPH,PrecipitationIn,Events,Conditions,WindDirDegrees,DateUTC
12:56 AM,39.0,35.1,86,30.27,10.0,WSW,3.5,-,N/A,,Clear,250,2013-03-28 04:56:00
1:56 AM,37.0,34.0,89,30.26,10.0,Calm,Calm,-,N/A,,Clear,0,2013-03-28 05:56:00
2:56 AM,37.0,34.0,89,30.26,10.0,Calm,Calm,-,N/A,,Clear,0,2013-03-28 06:56:00
3:56 AM,35.1,32.0,89,30.25,10.0,Calm,Calm,-,N/A,,Clear,0,2013-03-28 07:56:00
4:56 AM,36.0,33.1,89,30.25,10.0,Calm,Calm,-,N/A,,Clear,0,2013-03-28 08:56:00
5:56 AM,35.1,32.0,89,30.25,10.0,Calm,Calm,-,N/A,,Clear,0,2013-03-28 09:56:00
6:56 AM,36.0,32.0,86,30.27,10.0,Calm,Calm,-,N/A,,Partly Cloudy,0,2013-03-28 10:56:00
7:56 AM,37.9,33.1,83,30.29,10.0,Calm,Calm,-,N/A,,Clear,0,2013-03-28 11:56:00
8:56 AM,46.0,35.1,66,30.30,10.0,NNW,8.1,-,N/A,,Clear,330,2013-03-28 12:56:00
9:56 AM,52.0,32.0,47,30.32,10.0,NW,5.8,-,N/A,,Clear,320,2013-03-28 13:56:00
10:56 AM,57.0,28.9,34,30.32,10.0,North,6.9,-,N/A,,Clear,10,2013-03-28 14:56:00
11:56 AM,60.1,28.0,30,30.31,10.0,North,9.2,-,N/A,,Clear,350,2013-03-28 15:56:00
12:56 PM,62.1,28.0,28,30.30,10.0,NNW,5.8,18.4,N/A,,Clear,340,2013-03-28 16:56:00
1:56 PM,64.0,24.1,22,30.28,10.0,NW,10.4,16.1,N/A,,Clear,320,2013-03-28 17:56:00
2:56 PM,66.0,24.1,20,30.26,10.0,North,9.2,-,N/A,,Clear,10,2013-03-28 18:56:00
3:56 PM,66.9,25.0,21,30.23,10.0,NW,6.9,-,N/A,,Clear,320,2013-03-28 19:56:00
4:56 PM,66.9,26.1,21,30.22,10.0,NW,12.7,-,N/A,,Clear,320,2013-03-28 20:56:00
5:56 PM,64.0,41.0,43,30.22,10.0,East,4.6,-,N/A,,Clear,80,2013-03-28 21:56:00
6:56 PM,60.1,41.0,49,30.24,10.0,ENE,9.2,-,N/A,,Clear,70,2013-03-28 22:56:00
7:56 PM,54.0,42.1,64,30.25,10.0,ENE,5.8,-,N/A,,Clear,60,2013-03-28 23:56:00
8:56 PM,52.0,42.1,69,30.27,10.0,Calm,Calm,-,N/A,,Clear,0,2013-03-29 00:56:00
9:56 PM,48.0,41.0,77,30.28,10.0,Calm,Calm,-,N/A,,Clear,0,2013-03-29 01:56:00
10:56 PM,46.0,39.9,79,30.30,10.0,Calm,Calm,-,N/A,,Clear,0,2013-03-29 02:56:00
11:56 PM,44.1,41.0,89,30.30,10.0,Calm,Calm,-,N/A,,Clear,0,2013-03-29 03:56:00